Skip Page Navigation
NASA JPL Caltech
NASA Logo - Jet Propulsion Laboratory + View the NASA Portal
+ Near-Earth Object (NEO) Program
Search JPL
JPL Home Earth Solar System Stars & Galaxies Technology
JPL Solar System Dynamics
BODIES ORBITS EPHEMERIDES TOOLS PHYSICAL DATA DISCOVERY FAQ SITE MAP
JPL Small-Body Database Browser
Search: [ help ]  
7294 (1992 LM)
Classification: Main-belt Asteroid          SPK-ID: 2007294
Ephemeris | Orbit Diagram | Orbital Elements | Physical Parameters | Discovery Circumstances ]

[ show orbit diagram ]
Orbital Elements at Epoch 2457600.5 (2016-Jul-31.0) TDB
Reference: JPL 10 (heliocentric ecliptic J2000)
 Element Value Uncertainty (1-sigma)   Units 
e .09011679330960541 6.5886e-08  
a 2.659213283852382 2.0518e-08 au
q 2.4195735099853 1.7939e-07 au
i 6.70900557923146 5.98e-06 deg
node 74.14174347778415 6.1121e-05 deg
peri 72.89403168821973 7.1648e-05 deg
M 290.5294172465 3.9117e-05 deg
tp 2457906.151566153482
(2017-Jun-01.65156615)
0.00017318 JED
period 1583.901551620566
4.34
1.8331e-05
5.019e-08
d
yr
n .2272868535494941 2.6305e-09 deg/d
Q 2.898853057719464 2.2367e-08 au
  Orbit Determination Parameters
   # obs. used (total)      1065  
   data-arc span      9619 days (26.34 yr)  
   first obs. used      1989-09-02  
   last obs. used      2016-01-03  
   planetary ephem.      DE431  
   SB-pert. ephem.      SB431-BIG16  
   condition code      0  
   fit RMS      .50035  
   data source      ORB  
   producer      Otto Matic  
   solution date      2016-Feb-25 18:23:39  

Additional Information
 Earth MOID = 1.44077 au 
 Jupiter MOID = 2.13075 au 
 T_jup = 3.371 
[ show covariance matrix ]

Ephemeris | Orbit Diagram | Orbital Elements | Physical Parameters | Discovery Circumstances ]

Physical Parameter Table
Parameter Symbol Value Units Sigma Reference Notes
absolute magnitude H 12.9 mag n/a MPO358702  

7294 (1992 LM)          Discovered 1992-Jun-03 by Leonard, G. J. at Palomar
Reference: DISCOVERY.DBLast Updated: 2003-08-29
Ephemeris | Orbit Diagram | Orbital Elements | Physical Parameters | Discovery Circumstances ]
ABOUT SSD CREDITS/AWARDS PRIVACY/COPYRIGHT GLOSSARY LINKS
FirstGov 2016-May-04 21:10 UT
(server date/time)  
NASA Home Page
Site Manager:   Ryan S. Park
Webmaster  Alan B. Chamberlin